Notices

What's New in latest Release from April 7th, 2021:

- Updated Glossary, including Speed of Maximum Gust, and Total Hourly Precipitation

- Updated national and regional climate services offices contacts and prices information

- Addition of station inventory lists for 1981-2010, 1971-2000, and 1961-1990 Normals.

If you haven't already, please take our survey and provide feedback about our website: https://eccc.sondage-survey.ca/f/LanguageSelection.aspx?s=442ca660-fcf1-47c0-95a9-59707d6fd709

Hourly Data Report for April 13, 2018

MIRAMICHI RCS
NEW BRUNSWICK
Current Station Operator: ECCC - MSC

47°00'34.000" N
65°27'54.000" W
33.00 m
8100989
71744
ACQ

Download Data

Hourly Data (April 2018)
Hourly Data Report for April 13, 2018
TIME
LST
Temp Definition
°C
Dew Point Definition
°C
Rel Hum Definition
%
Precip. Amount Definition
mm

Wind Dir Definition
10's deg

Wind Spd Definition
km/h
Visibility Definition
km
Stn Press Definition
kPa
Hmdx Definition


Wind Chill Definition


Weather Definition


00:00 2.6 -0.7 79 0.0 19 15   100.95     LegendNANA
01:00 2.4 -0.2 83 0.0 17 11   100.81     LegendNANA
02:00 2.3 0.0 85 0.0 17 14   100.73     LegendNANA
03:00 1.1 0.2 94 1.2 13 14   100.54     LegendNANA
04:00 0.5 -0.1 96 1.1 11 15   100.36     LegendNANA
05:00 0.4 -0.1 96 0.6 11 12   100.27     LegendNANA
06:00 0.4 -0.1 97 0.9 11 10   100.17     LegendNANA
07:00 0.5 -0.1 96 2.7 7 10   100.11     LegendNANA
08:00 0.7 0.1 96 0.3 1 6   100.11     LegendNANA
09:00 1.5 0.7 95 0.0 34 6   100.11     LegendNANA
10:00 3.0 1.4 89 0.0 29 8   100.12     LegendNANA
11:00 4.3 1.0 79 0.0 29 13   100.18     LegendNANA
12:00 5.2 1.7 78 0.0 27 13   100.26     LegendNANA
13:00 6.8 1.5 69 0.0 29 11   100.30     LegendNANA
14:00 7.0 1.6 69 0.0 26 14   100.33     LegendNANA
15:00 7.0 -0.2 60 0.0 29 22   100.41     LegendNANA
16:00 7.2 -0.9 56 0.0 28 15   100.48     LegendNANA
17:00 7.6 -0.2 58 0.0 25 8   100.53     LegendNANA
18:00 7.5 -1.3 54 0.0 29 12   100.60     LegendNANA
19:00 6.2 -2.4 54 0.0 26 9   100.64     LegendNANA
20:00 3.6 -2.0 66 0.0 23 10   100.71     LegendNANA
21:00 3.2 -2.2 68 0.0 24 7   100.74     LegendNANA
22:00 2.8 -2.4 69 0.0 25 8   100.75     LegendNANA
23:00 1.0 -2.4 78 0.0 25 8   100.75     LegendNANA

Notes on Data Quality.

Legend

  • E = Estimated
  • M = Missing
  • NA = Not Available*
  • [empty] = Indicates an unobserved value
Date modified: